This is the latest recevied weather packets stored in our database for station/object W8AN. If no packets are shown the sender has not sent any weather packets the latest 10 day(s).
| Time | Temp. | Humidity | Pressure | Rain* | Wind** | Luminosity | Snow |
|---|---|---|---|---|---|---|---|
| 1777604033 | 9.44° C | 62% | 4269.3 hPa | 0 mm | - | 0 W/m² | - |
| 1777603731 | 9.44° C | 63% | 4269.4 hPa | 0 mm | - | 0 W/m² | - |
| 1777603427 | 9.44° C | 65% | 4269.5 hPa | 0 mm | - | 0 W/m² | - |
| 1777603122 | 9.44° C | 64% | 4269.3 hPa | 0 mm | - | 0 W/m² | - |
| 1777602817 | 9.44° C | 64% | 4269.3 hPa | 0 mm | - | 0 W/m² | - |
| 1777602513 | 10° C | 61% | 4269.5 hPa | 0 mm | - | 0 W/m² | - |
| 1777602210 | 10° C | 60% | 4269.3 hPa | 0 mm | - | 0 W/m² | - |
| 1777601905 | 10° C | 59% | 4269.4 hPa | 0 mm | - | 0 W/m² | - |
| 1777601600 | 10° C | 59% | 4269.2 hPa | 0 mm | - | 0 W/m² | - |
| 1777601295 | 10° C | 59% | 4269.4 hPa | 0 mm | - | 0 W/m² | - |
| 1777600993 | 10° C | 59% | 4269.4 hPa | 0 mm | - | 0 W/m² | - |
| 1777600689 | 10° C | 58% | 4269.4 hPa | 0 mm | - | 0 W/m² | - |
| 1777600385 | 10° C | 61% | 4269.2 hPa | 0 mm | - | 0 W/m² | - |
| 1777600081 | 10° C | 61% | 4269.3 hPa | 0 mm | - | 0 W/m² | - |
| 1777599777 | 10° C | 62% | 4268.9 hPa | 0 mm | - | 0 W/m² | - |
| 1777599473 | 10° C | 62% | 4269.1 hPa | 0 mm | - | 0 W/m² | - |
| 1777599170 | 10.56° C | 56% | 4268.8 hPa | 0 mm | - | 0 W/m² | - |
| 1777598864 | 10.56° C | 54% | 4269.1 hPa | 0 mm | - | 0 W/m² | - |
| 1777598564 | 10.56° C | 54% | 4269.1 hPa | 0 mm | - | 0 W/m² | - |
| 1777598259 | 10.56° C | 56% | 4269.1 hPa | 0 mm | - | 0 W/m² | - |
| 1777597957 | 10.56° C | 55% | 4269.1 hPa | 0 mm | - | 0 W/m² | - |
| 1777597656 | 10.56° C | 52% | 4269.1 hPa | 0 mm | - | 0 W/m² | - |
| 1777597352 | 10.56° C | 51% | 4269.1 hPa | 0 mm | - | 0 W/m² | - |
| 1777597047 | 10.56° C | 53% | 4269.2 hPa | 0 mm | - | 0 W/m² | - |
| 1777596744 | 10.56° C | 50% | 4268.8 hPa | 0 mm | - | 0 W/m² | - |
* Rain latest hour (hover to see other rain measurements)
** Current wind speed in m/s (hover to see current wind gust speed)